Location: Seattle
(47.6064°N, 122.3308°W)
Time: 01:01:53
(UTC-08:00)

Tiros 1 - Pass Details

Date: 29 November 2020
Orbit: 630 x 663 km, 48.4° (Epoch: 28 January)

Event Time Altitude Azimuth Distance (km) Brightness Sun altitude
Rises 15:17:01 0° 227° (SW) 2,985 13.3 7.6°
Reaches altitude 10° 15:19:27 10° 220° (SW) 2,075 12.6 7.3°
Maximum altitude 15:23:57 42° 150° (SSE) 944 8.3 6.7°
Drops below altitude 10° 15:28:28 10° 80° (E) 2,075 9.3 6.2°
Sets 15:30:54 0° 74° (ENE) 2,985 10.0 5.9°
